FW1197 Weather Reports


Display with metric or nautical units.
time (UTC)temp
F
wind
direction
speed
MPH
gust
MPH
rain 1hr
in
rain 24hr
in
rain mn
in
humidity
%
barometer
mb
20260906072703 79 327 3.0 7.0 0.00 0.01 0.01 60 1024.2
20260906071803 80 337 2.0 4.0 0.00 0.01 0.01 58 1024.2
20260906070903 80 349 1.0 4.0 0.00 0.01 0.01 59 1024.1
20260906070003 80 360 1.0 4.0 0.00 0.01 0.01 62 1024.1
20260906065404 80 331 1.0 4.0 0.00 0.01 0.01 64 1024.1
20260906064524 78 344 1.0 4.0 0.00 0.01 0.01 70 1024.1
20260906063603 79 354 1.0 2.0 0.00 0.01 0.01 72 1024.1
20260906062703 78 357 1.0 3.0 0.00 0.01 0.01 75 1024.1
20260906061803 76 352 1.0 5.0 0.00 0.01 0.01 79 1023.7
20260906060904 76 355 1.0 3.0 0.00 0.01 0.01 80 1023.8
20260906060003 75 357 1.0 3.0 0.00 0.01 0.01 81 1023.7
20260906055403 75 6 1.0 2.0 0.00 0.01 0.01 80 1023.6
20260906054503 74 7 1.0 2.0 0.00 0.01 0.01 80 1023.7
20260906053626 74 12 1.0 3.0 0.00 0.01 0.01 82 1023.4
20260906052705 72 22 1.0 2.0 0.00 0.01 0.01 85 1023.5
20260906051825 71 29 2.0 3.0 0.00 0.01 0.01 85 1023.5
20260906050904 72 24 2.0 4.0 0.00 0.01 0.01 84 1023.5
20260906050026 72 23 2.0 3.0 0.00 0.01 0.01 85 1023.4
20260906045405 72 23 2.0 4.0 0.00 0.01 0.01 86 1023.4
20260906044525 71 26 2.0 4.0 0.00 0.01 0.01 86 1023.4
20260906043604 70 32 2.0 3.0 0.00 0.01 0.01 90 1023.2
20260906042705 69 52 2.0 3.0 0.00 0.01 0.01 90 1023.3
20260906041804 70 36 1.0 2.0 0.00 0.01 0.01 90 1023.2
20260906040904 70 36 1.0 3.0 0.00 0.01 0.01 89 1023.3
20260906040005 70 27 1.0 3.0 0.00 0.01 0.01 89 1023.2
20260906035405 71 25 2.0 3.0 0.00 0.01 0.01 88 1023.1
20260906034504 71 31 1.0 3.0 0.00 0.01 0.01 88 1023.0
20260906033605 72 22 2.0 3.0 0.00 0.01 0.01 85 1023.1
20260906032704 72 20 2.0 3.0 0.00 0.01 0.01 86 1023.1
20260906031804 72 25 2.0 3.0 0.00 0.01 0.01 87 1022.9
20260906030904 71 38 2.0 3.0 0.00 0.01 0.01 89 1023.1
20260906030005 71 29 2.0 4.0 0.00 0.01 0.01 89 1023.2
20260906025404 71 33 2.0 4.0 0.00 0.01 0.01 90 1023.3
20260906024505 71 22 2.0 3.0 0.00 0.01 0.01 90 1023.4
20260906023605 71 29 1.0 3.0 0.00 0.01 0.01 91 1023.3
20260906022704 71 34 1.0 3.0 0.00 0.01 0.01 93 1023.2
20260906021804 71 26 1.0 3.0 0.00 0.01 0.01 93 1023.3
20260906020905 71 36 1.0 4.0 0.00 0.01 0.01 93 1023.1
20260906020004 71 22 2.0 4.0 0.00 0.01 0.01 94 1023.3
20260906015404 71 20 2.0 4.0 0.00 0.01 0.01 94 1023.3
20260906014505 71 27 2.0 4.0 0.00 0.01 0.01 93 1023.3
20260906013605 71 12 2.0 3.0 0.00 0.01 0.01 93 1023.4
20260906012704 71 34 1.0 3.0 0.00 0.01 0.01 93 1023.3
20260906011825 70 15 2.0 4.0 0.00 0.01 0.01 92 1023.4
20260906010904 71 9 2.0 4.0 0.00 0.01 0.01 92 1023.5
20260906010004 71 11 1.0 4.0 0.00 0.01 0.01 92 1023.3
20260906005404 71 10 1.0 3.0 0.00 0.01 0.01 92 1023.3
20260906004526 71 25 1.0 3.0 0.00 0.01 0.01 91 1023.4
20260906003604 71 23 1.0 2.0 0.00 0.01 0.01 91 1023.2
20260906002704 72 23 2.0 2.0 0.00 0.01 0.01 91 1023.4
20260906001804 72 24 1.0 2.0 0.00 0.01 0.01 92 1023.4
20260906000905 71 26 1.0 2.0 0.00 0.01 0.01 91 1023.6
20260906000025 72 27 1.0 3.0 0.00 0.01 0.01 91 1023.6
20260905235405 72 23 2.0 3.0 0.00 0.01 0.01 90 1023.7
20260905234504 72 30 2.0 3.0 0.00 0.01 0.01 90 1023.7
20260905233604 71 32 1.0 2.0 0.00 0.00 0.00 88 1023.7
20260905232725 71 42 1.0 2.0 0.00 0.00 0.00 87 1023.7
20260905231804 70 36 1.0 2.0 0.00 0.00 0.00 85 1023.8
20260905230904 70 40 1.0 2.0 0.00 0.00 0.00 84 1023.6
20260905230005 71 37 1.0 1.0 0.00 0.00 0.00 84 1023.7
20260905225405 71 36 1.0 1.0 0.00 0.00 0.00 84 1023.6
20260905224504 71 29 1.0 2.0 0.00 0.00 0.00 82 1023.7
20260905223604 71 16 1.0 2.0 0.00 0.00 0.00 83 1024.1
20260905222704 71 351 2.0 4.0 0.00 0.00 0.00 83 1023.9
20260905221805 72 340 2.0 4.0 0.00 0.00 0.00 81 1023.6
20260905220904 71 359 1.0 4.0 0.00 0.00 0.00 80 1023.6
20260905220004 71 33 1.0 2.0 0.00 0.00 0.00 79 1023.7
20260905215425 71 34 1.0 2.0 0.00 0.00 0.00 78 1023.6
20260905214504 71 47 1.0 2.0 0.00 0.00 0.00 77 1023.7
20260905213604 71 31 1.0 2.0 0.00 0.00 0.00 76 1023.7
20260905212705 71 38 1.0 3.0 0.00 0.00 0.00 76 1023.5
20260905211804 72 33 2.0 2.0 0.00 0.00 0.00 75 1023.5
20260905210904 72 18 1.0 2.0 0.00 0.00 0.00 74 1023.4
20260905210004 73 19 1.0 2.0 0.00 0.00 0.00 73 1023.5
20260905205404 73 20 1.0 2.0 0.00 0.00 0.00 72 1023.5
20260905204504 73 13 1.0 2.0 0.00 0.00 0.00 73 1023.7
20260905203604 73 25 1.0 3.0 0.00 0.00 0.00 72 1023.6
20260905202705 73 11 1.0 2.0 0.00 0.00 0.00 73 1023.6
20260905201804 73 28 1.0 3.0 0.00 0.00 0.00 73 1023.5
20260905200905 73 12 2.0 4.0 0.00 0.00 0.00 74 1023.5
20260905200004 73 3 1.0 3.0 0.00 0.00 0.00 74 1023.6
20260905195404 72 2 1.0 3.0 0.00 0.00 0.00 74 1023.5
20260905194525 73 350 2.0 5.0 0.00 0.00 0.00 75 1023.6
20260905193604 72 2 1.0 3.0 0.00 0.00 0.00 75 1023.6
20260905192704 73 8 1.0 3.0 0.00 0.00 0.00 74 1023.6
20260905191825 73 1 1.0 3.0 0.00 0.00 0.00 74 1023.5
20260905190904 74 352 2.0 5.0 0.00 0.00 0.00 72 1023.6
20260905190025 74 335 4.0 8.0 0.00 0.00 0.00 71 1023.5
20260905185426 74 329 4.0 8.0 0.00 0.00 0.00 71 1023.5
20260905184504 74 333 2.0 6.0 0.00 0.00 0.00 72 1023.3
20260905183625 74 328 2.0 4.0 0.00 0.00 0.00 71 1023.0
20260905182704 74 313 1.0 3.0 0.00 0.00 0.00 71 1023.1
20260905181804 75 301 1.0 3.0 0.00 0.00 0.00 71 1023.2
20260905180904 75 271 1.0 2.0 0.00 0.00 0.00 69 1022.9
20260905180005 76 263 1.0 3.0 0.00 0.00 0.00 69 1023.0
20260905175405 76 264 2.0 4.0 0.00 0.00 0.00 68 1023.0
20260905174504 77 244 2.0 4.0 0.00 0.00 0.00 66 1022.8
20260905173604 77 263 3.0 6.0 0.00 0.00 0.00 64 1022.7
20260905172725 78 250 2.0 5.0 0.00 0.00 0.00 62 1022.7
20260905171804 80 256 3.0 5.0 0.00 0.00 0.00 61 1022.6
20260905170904 80 215 2.0 5.0 0.00 0.00 0.00 60 1022.7
20260905170025 82 251 3.0 6.0 0.00 0.00 0.00 58 1022.7
20260905165426 82 241 2.0 6.0 0.00 0.00 0.00 55 1022.8
20260905164504 83 220 2.0 6.0 0.00 0.00 0.00 47 1022.7
20260905163604 83 201 2.0 4.0 0.00 0.00 0.00 49 1022.6
20260905162704 83 196 2.0 7.0 0.00 0.00 0.00 51 1022.5
20260905161804 83 212 3.0 7.0 0.00 0.00 0.00 47 1022.7
20260905160904 83 213 2.0 6.0 0.00 0.00 0.00 45 1022.7
20260905160005 83 224 3.0 9.0 0.00 0.00 0.00 44 1022.7
20260905155404 83 254 3.0 9.0 0.00 0.00 0.00 43 1022.8
20260905154504 83 267 4.0 9.0 0.00 0.00 0.00 49 1022.9
20260905153604 83 292 4.0 10.0 0.00 0.00 0.00 52 1022.7
20260905152704 84 265 4.0 10.0 0.00 0.00 0.00 51 1022.8
20260905151805 85 261 5.0 10.0 0.00 0.00 0.00 48 1022.7
20260905150904 84 261 5.0 10.0 0.00 0.00 0.00 51 1022.8
20260905150025 83 263 5.0 10.0 0.00 0.00 0.00 48 1022.8
20260905145404 83 269 5.0 11.0 0.00 0.00 0.00 48 1023.0
20260905144504 83 263 6.0 13.0 0.00 0.00 0.00 51 1023.0
20260905143604 83 272 5.0 13.0 0.00 0.00 0.00 51 1022.9
20260905142703 84 252 5.0 12.0 0.00 0.00 0.00 48 1023.1
20260905141805 83 277 7.0 13.0 0.00 0.00 0.00 48 1023.1
20260905140904 84 261 6.0 14.0 0.00 0.00 0.00 49 1022.9
20260905140004 84 277 6.0 11.0 0.00 0.00 0.00 46 1023.1
20260905135404 85 267 5.0 11.0 0.00 0.00 0.00 44 1023.2
20260905134504 87 224 3.0 9.0 0.00 0.00 0.00 41 1023.1
20260905133604 85 249 4.0 11.0 0.00 0.00 0.00 41 1023.3
20260905132704 86 254 5.0 15.0 0.00 0.00 0.00 38 1023.2
20260905131804 87 213 4.0 9.0 0.00 0.00 0.00 37 1023.4
20260905130904 86 245 5.0 11.0 0.00 0.00 0.00 42 1023.1
20260905130004 87 241 4.0 11.0 0.00 0.00 0.00 42 1023.5
20260905125404 86 257 4.0 13.0 0.00 0.00 0.00 42 1023.4
20260905124504 86 241 4.0 9.0 0.00 0.00 0.00 39 1023.3
20260905123604 88 254 4.0 9.0 0.00 0.00 0.00 40 1023.2
20260905122704 86 239 3.0 12.0 0.00 0.00 0.00 39 1023.6
20260905121804 86 250 4.0 11.0 0.00 0.00 0.00 38 1023.5
20260905120904 85 262 6.0 11.0 0.00 0.00 0.00 40 1023.6
20260905120004 85 215 5.0 9.0 0.00 0.00 0.00 41 1023.4
20260905115404 86 231 4.0 9.0 0.00 0.00 0.00 41 1023.6
20260905114504 87 205 3.0 9.0 0.00 0.00 0.00 40 1023.4
20260905113604 86 213 4.0 10.0 0.00 0.00 0.00 41 1023.6
20260905112703 86 207 4.0 10.0 0.00 0.00 0.00 41 1023.3
20260905111803 87 224 3.0 8.0 0.00 0.00 0.00 39 1023.5
20260905110903 85 208 5.0 12.0 0.00 0.00 0.00 41 1023.5
20260905110004 86 212 4.0 12.0 0.00 0.00 0.00 40 1023.4
20260905105403 85 182 4.0 9.0 0.00 0.00 0.00 40 1023.8
20260905104504 87 198 4.0 7.0 0.00 0.00 0.00 39 1023.5
20260905103603 85 188 4.0 13.0 0.00 0.00 0.00 38 1023.5
20260905102704 86 193 3.0 10.0 0.00 0.00 0.00 35 1023.3
20260905101804 85 187 5.0 12.0 0.00 0.00 0.00 33 1023.6
20260905100903 85 205 4.0 11.0 0.00 0.00 0.00 35 1023.6
20260905100004 86 172 3.0 10.0 0.00 0.00 0.00 32 1023.8
20260905095403 85 173 5.0 12.0 0.00 0.00 0.00 33 1023.8
20260905094503 85 174 4.0 11.0 0.00 0.00 0.00 35 1023.7
20260905093603 85 173 6.0 13.0 0.00 0.00 0.00 36 1023.7
20260905092725 84 176 6.0 13.0 0.00 0.00 0.00 38 1023.6
20260905091803 85 197 4.0 10.0 0.00 0.00 0.00 36 1023.7
20260905090903 85 205 3.0 10.0 0.00 0.00 0.00 36 1023.7
20260905090004 85 198 3.0 9.0 0.00 0.00 0.00 36 1023.8
20260905085404 85 234 3.0 8.0 0.00 0.00 0.00 35 1023.6
20260905084503 84 228 3.0 7.0 0.00 0.00 0.00 35 1023.5
20260905083604 84 150 4.0 8.0 0.00 0.00 0.00 36 1023.4
20260905082704 83 155 4.0 9.0 0.00 0.00 0.00 36 1023.4
20260905081824 82 158 5.0 9.0 0.00 0.00 0.00 37 1023.5
20260905080903 82 154 5.0 7.0 0.00 0.00 0.00 37 1023.4
20260905080004 83 167 3.0 6.0 0.00 0.00 0.00 38 1023.2
20260905075404 82 164 4.0 7.0 0.00 0.00 0.00 39 1023.2
20260905074503 81 159 4.0 8.0 0.00 0.00 0.00 39 1023.1
20260905073603 82 169 3.0 7.0 0.00 0.00 0.00 38 1023.3